• Join FlightAware (Why Join?)
  • Login
  • US Flag 
09:50PM EDT


 

Airport Tracker/Info


-or-


 

Live Flight TrackerFlight Track Log ✈ N877PM ✈ 03-May-2014 ✈ KEAR - KCID

Flight Track Log - Related Links

Times and Time Zones

All times are in EDT time to prevent confusion due to time zone crossing. See the N877PM flight status page for this flight to view local times or setup timezone preferences in your user account.

Time Position Orientation Groundspeed Altitude Reporting Facility
EDT Latitude Longitude Course Direction KTS MPH feet Rate Location/Type
09:33AM 40.7694 -98.8703 78° East 182 209 8,000  Level Minneapolis Center
09:34AM 40.7831 -98.7961 76° East 202 232 10,000 1,920 Climbing Minneapolis Center
09:35AM 40.7981 -98.7189 76° East 213 245 12,000 2,100 Climbing Minneapolis Center
09:36AM 40.8158 -98.6242 76° East 219 252 14,400 1,980 Climbing Minneapolis Center
09:37AM 40.8300 -98.5389 78° East 233 268 16,100 1,740 Climbing Minneapolis Center
09:38AM 40.8291 -98.3779 78° East  Level FlightAware Approximate
09:38AM 40.8472 -98.4506 76° East 245 282 18,000  Level Minneapolis Center
09:39AM 40.8633 -98.3633 76° East 245 282 19,700 1,620 Climbing Minneapolis Center
09:40AM 40.8792 -98.2731 77° East 248 285 21,300 1,500 Climbing Minneapolis Center
09:41AM 40.8956 -98.1789 77° East 258 297 22,800 1,500 Climbing Minneapolis Center
09:42AM 40.9136 -98.0819 76° East 268 308 24,400 1,500 Climbing Minneapolis Center
09:43AM 40.9306 -97.9803 78° East 277 319 25,900 1,440 Climbing Minneapolis Center
09:44AM 40.9394 -97.8728 84° East 289 333 27,400 1,440 Climbing Minneapolis Center
09:45AM 40.9478 -97.7644 84° East 293 337 28,900 1,380 Climbing Minneapolis Center
09:46AM 40.9567 -97.6544 84° East 299 344 30,300 1,380 Climbing Minneapolis Center
09:47AM 40.9667 -97.5206 84° East 302 348 31,800 1,320 Climbing Minneapolis Center
09:48AM 40.9772 -97.4058 83° East 309 356 33,100 1,140 Climbing Minneapolis Center
09:49AM 40.9944 -97.3025 78° East 311 358 34,200 900 Climbing Minneapolis Center
09:51AM 41.0167 -97.1886 75° East 313 360 35,000 360 Climbing Minneapolis Center
09:52AM 41.0392 -97.0636 77° East 340 391 35,000  Level Minneapolis Center
09:53AM 41.0639 -96.9258 77° East 375 432 35,000  Level Minneapolis Center
09:54AM 41.0883 -96.7853 77° East 387 445 35,000  Level Minneapolis Center
09:55AM 41.1119 -96.6431 78° East 392 451 35,000  Level Minneapolis Center
09:56AM 41.1414 -96.4747 77° East 393 452 35,000  Level Minneapolis Center
09:57AM 41.1656 -96.3344 77° East 392 451 35,000  Level Minneapolis Center
09:58AM 41.1861 -96.2064 78° East 394 453 35,000  Level Minneapolis Center
09:59AM 41.2103 -96.0636 77° East 395 455 35,000  Level Minneapolis Center
10:00AM 41.2342 -95.9203 77° East 396 456 35,000  Level Minneapolis Center
10:01AM 41.2622 -95.7492 78° East 396 456 35,000  Level Minneapolis Center
10:02AM 41.2814 -95.6294 78° East 396 456 35,000  Level Minneapolis Center
10:03AM 41.3044 -95.4858 78° East 396 456 35,000  Level Minneapolis Center
10:04AM 41.3328 -95.3133 78° East 397 457 35,000  Level Minneapolis Center
10:05AM 41.3553 -95.1714 78° East 397 457 35,000  Level Minneapolis Center
10:06AM 41.3786 -95.0272 78° East 397 457 35,000  Level Minneapolis Center
10:07AM 41.4003 -94.8825 79° East 397 457 35,000  Level Minneapolis Center
10:08AM 41.4228 -94.7378 78° East 398 458 35,000  Level Minneapolis Center
10:09AM 41.4442 -94.5947 79° East 397 457 35,000 -60 Level Minneapolis Center
10:10AM 41.4656 -94.4506 79° East 397 457 34,900 -960 Descending Minneapolis Center
10:11AM 41.4875 -94.3061 78° East 397 457 33,100 -1,860 Descending Minneapolis Center
10:12AM 41.5122 -94.1569 77° East 400 460 31,200 -1,140 Descending Minneapolis Center
10:13AM 41.5333 -94.0092 79° East 405 466 30,800 -1,140 Descending Minneapolis Center
10:14AM 41.5547 -93.8606 79° East 406 467 29,000 -1,920 Descending Minneapolis Center
10:15AM 41.5797 -93.6811 79° East 410 472 26,900 -1,920 Descending Minneapolis Center
10:16AM 41.6006 -93.5325 79° East 410 472 25,100 -1,620 Descending Minneapolis Center
10:17AM 41.6236 -93.3828 78° East 410 472 23,600 -1,380 Descending Minneapolis Center
10:18AM 41.6439 -93.2322 80° East 410 472 22,300 -1,620 Descending Minneapolis Center
10:19AM 41.6653 -93.0844 79° East 411 473 20,300 -2,100 Descending Minneapolis Center
10:20AM 41.6861 -92.9339 79° East 411 473 18,100 -2,400 Descending Minneapolis Center
10:21AM 41.7081 -92.7672 80° East 406 467 15,500 -2,340 Descending Minneapolis Center
10:22AM 41.7275 -92.6275 79° East 393 452 13,400 -2,040 Descending Minneapolis Center
10:23AM 41.7458 -92.4914 80° East 382 440 11,400 -1,200 Descending Minneapolis Center
10:24AM 41.7611 -92.3697 80° East 354 407 11,000 -480 Descending Minneapolis Center
10:25AM 41.7767 -92.2586 79° East 324 373 10,500 -1,320 Descending Minneapolis Center
10:26AM 41.7789 -92.1542 88° East 292 336 8,400 -2,100 Descending Minneapolis Center
10:27AM 41.7700 -92.0569 97° East 271 312 6,300 -1,440 Descending Minneapolis Center
10:28AM 41.7639 -91.9481 94° East 256 295 5,500 -1,200 Descending Minneapolis Center
10:29AM 41.7592 -91.8681 94° East 238 274 3,900 -1,260 Descending Minneapolis Center
10:30AM 41.7561 -91.7908 93° East 225 259 3,000 -480 Descending Minneapolis Center
10:31AM 41.7547 -91.7144 91° East 213 245 3,000  Level Minneapolis Center
10:33AM 41.7850 -91.6508 57° Northeast 173 199 3,000 -360 Level Chicago Center
10:34AM 41.8244 -91.6428 North 156 180 2,200 -600 Descending Chicago Center
10:35AM 41.8619 -91.6422 North 145 167 1,800 -420 Descending Chicago Center